Regional Weather Roundup
Issued by NWS Austin/San Antonio, TX

Home | Current Version | Previous Version | Text Only | Print | Product List | Glossary On
Versions: 1 2 3 4 5 6 7 8 9 10 11 12 13 14 15 16 17 18 19 20 21 22 23 24 25 26 27 28 29 30 31 32 33 34 35 36 37 38 39 40 41 42 43 44 45 46 47 48 49 50
000
ASUS44 KEWX 280402
RWREWX
SOUTH TEXAS REGIONAL WEATHER ROUNDUP
NATIONAL WEATHER SERVICE AUSTIN/SAN ANTONIO TX
1100 PM CDT THU APR 27 2017

NOTE: "FAIR" INDICATED FEW OR NO CLOUDS BELOW 12,000 FEET WITH NO
SIGNIFICANT WEATHER AND/OR OBSTRUCTIONS TO VISIBILITY.

* - THESE STATIONS ARE NOT NWS OR FAA STATIONS...AND ARE NOT SUBJECT
    TO NWS AND FAA QUALITY CONTROL.

TXZ171-172-183>190-280500-
TEXAS HILL COUNTRY AND EDWARDS PLATEAU

CITY           SKY/WX    TMP DP  RH WIND       PRES   REMARKS
JUNCTION       CLOUDY    76  56  49 S13G22    29.58F
*LLANO         CLEAR     68  54  60 E3        29.62R
BURNET         CLEAR     72  56  57 S8        29.63R
*HORSESHOE BAY CLEAR     73  59  61 CALM      29.60R
*KERRVILLE     CLEAR     73  64  73 SE15      29.64R
*FREDERICKSBRG CLEAR     73  55  53 SE6G17    29.63S
*ROCKSPRINGS   CLOUDY    73  61  64 S12       29.66R
*BOERNE STAGE  PTCLDY    70  61  73 S10       29.66R
*CASTROVILLE   PTCLDY    73  63  70 SE10G18   29.65R
HONDO          CLEAR     75  65  70 SE13      29.62S
*UVALDE        CLEAR     76  65  69 SE12G17   29.61R
DEL RIO        CLOUDY    79  61  53 SE10      29.55R
LAUGHLIN AFB   NOT AVBL
CARRIZO SPRGS  CLEAR     79  66  65 SE14G22   29.57R
*EAGLE PASS    NOT AVBL
$$

TXZ173-191>194-202-209-217>225-228-280500-
CENTRAL AND SOUTH CENTRAL TEXAS

CITY           SKY/WX    TMP DP  RH WIND       PRES   REMARKS
GEORGETOWN     CLOUDY    72  57  60 S13       29.62S
AUSTIN/BERGSTM PTCLDY    71  64  78 S15       29.63R
AUSTIN/MABRY   CLOUDY    72  63  73 S13G20    29.63R
*AUSTIN/EXEC   FAIR      68  63  83 S9        29.64R
*LAGO VISTA    CLEAR     72  60  67 S13G18    29.63S
SAN MARCOS     CLOUDY    70  63  78 S10       29.65R
NEW BRAUNFELS  PTCLDY    72  64  76 S15G24    29.63S
RANDOLPH AFB   PTCLDY    70  66  86 S13       29.64R
PT SAN ANTONIO PTCLDY    73  65  76 SE17      29.62R
SAN ANTONIO    MOCLDY    73  63  70 SE17      29.65R
STINSON FIELD  PTCLDY    73  64  73 SE15      29.62S
*LA GRANGE     CLOUDY    72  66  81 S14       29.64S
*GIDDINGS      PTCLDY    71  63  76 S13       29.65S
*GONZALES      CLOUDY    71  68  88 S9G16     29.66S
$$

TXZ163>164-176>182-195>201-210>213-226-227-235-280500-
SOUTHEAST TEXAS

CITY           SKY/WX    TMP DP  RH WIND       PRES   REMARKS
COLLEGE STN    PTCLDY    71  61  70 SE14      29.65R
*BRYAN         PTCLDY    66  57  71 SE7       29.66S
*CALDWELL      NOT AVBL
*CROCKETT      PTCLDY    66  55  68 SE6       29.70R
*BRENHAM       PTCLDY    70  62  75 SE12      29.67S
HUNTSVILLE     PTCLDY    70  54  56 SE8       29.67R
CONROE         PTCLDY    66  59  78 SE3       29.69S
HOUSTON BUSH   CLOUDY    70  64  81 SE12      29.68S
HOUSTON HOBBY  CLOUDY    72  66  81 SE6       29.69R
*HOUSTON SW AP CLOUDY    70  65  85 SE5       29.69S
PEARLAND       CLOUDY    76  67  73 SE7       29.70R
HOUSTON HOOKS  CLOUDY    71  63  75 SE6       29.68R
ELLINGTON FLD  NOT AVBL
SUGAR LAND     CLOUDY    73  66  78 SE8       29.68S
*HOUSTON EXEC  CLOUDY    70  64  83 S10       29.69S
*CLEVELAND MUN PTCLDY    66  60  79 CALM      29.70S
*WHARTON       CLOUDY    71  65  81 SE6       29.69S
*COLUMBUS      CLOUDY    71  64  78 SE12G17   29.69R
*EAGLE LAKE    CLOUDY    71  66  82 SE8       29.68R
$$

TXZ214>216-236>238-280500-
THE UPPER TEXAS COAST

CITY           SKY/WX    TMP DP  RH WIND       PRES   REMARKS
*ORANGE        MOCLDY    72  66  82 SE7       29.73R
PORT ARTHUR    CLOUDY    75  66  73 SE15      29.71R
GALVESTON      CLOUDY    76  70  82 SE16G25   29.69S
ANGLETON       CLOUDY    76  70  82 S12G22    29.68R
*BAY CITY      CLOUDY    74  70  87 SE5       29.67S
PALACIOS       CLOUDY    75  70  84 SE14      29.66F
$$

TXZ229>234-239>247-280500-
TEXAS COASTAL BEND AND RIO GRANDE PLAINS

CITY           SKY/WX    TMP DP  RH WIND       PRES   REMARKS
VICTORIA       CLOUDY    74  69  85 SE13      29.67R
*BEEVILLE      CLOUDY    74  69  83 SE10G17   29.65S
ROCKPORT       CLOUDY    76  70  82 SE14      29.65F
*PORT ARANSAS  CLOUDY    75  71  86 SE7       29.66S
*PORT LAVACA   CLOUDY    74  71  90 SE13G18   29.66S
*INGLESIDE     CLOUDY    77  72  85 SE6       29.66S
CORPUS CHRISTI CLOUDY    76  71  85 SE13      29.65S
CORPUS NAS     NOT AVBL
*ROBSTOWN      CLOUDY    77  71  81 SE12      29.65F
ALICE          CLOUDY    75  69  81 SE10      29.63F
KINGSVILLE NAS CLOUDY    77  73  87 E7        29.64F
COTULLA        CLEAR     76  66  71 SE20G31   29.60R
*FAITH RANCH   PTCLDY    82  64  54 SE9G21    29.57R
LAREDO         CLEAR     78  69  73 SE14G21   29.61R
$$

TXZ248>255-280500-
DEEP SOUTH TEXAS

CITY           SKY/WX    TMP DP  RH WIND       PRES   REMARKS
BROWNSVILLE    CLOUDY    79  71  76 SE9       29.65S
PORT ISABEL    MOCLDY    79  71  76 SE13      29.64S
*SOUTH PADRE   NOT AVBL
HARLINGEN      CLOUDY    78  72  81 SE13      29.63S
*HEBBRONVILLE  MOCLDY    71  67  87 SE9       29.64S
MCALLEN        MOCLDY    80  71  74 SE12      29.63S
*WESLACO       CLOUDY    79  71  75 SE9       29.63R
FALFURRIAS     MOCLDY    75  70  84 SE6       29.63F
EDINBURG       MOCLDY    78  72  81 E7        29.63S
*ZAPATA        MOCLDY    78  68  71 E10G18    29.61R
$$

TXZ213>215-236>238-242>244-246-247-251-254-255-280500-
CMAN STATIONS

STATION/POSITION TIME  TEMP    WIND        PRES    WAVE
                       AIR SEA DIR/SP/G            HT/PER
                 (UTC) (F)     (DEG/KT/KT) (MB)    (FT/S)
SABINE PASS      0330   75 77  140/ 12/ 15 1007.2
SEA RIM ST PARK  0300   74     140/ 14/ 19 1006.2
NORTH JETTY/GLS  0330      75  130/ 19/ 23 1005.0
EAGLE POINT      0330   73 75  170/ 17/ 21 1005.0
MORGANS POINT    0330   74 75  130/ 12/ 17 1005.3
MISSION/ARANSAS  0300   76                 1005.0
PORT O`CONNOR    0330   75     140/ 14/ 16 1004.4
PORT ARANSAS     0300   75 77  110/ 12/ 13 1004.4
MALAQUITE BEACH  0330   76 78  100/ 10/ 12 1004.7
BAFFIN BAY       0330   76 78   60/ 10/ 12 1004.1
PORT ISABEL      0324   78 81  160/  6/ 11 1003.7
$$



USA.gov is the U.S. government's official web portal to all federal, state and local government web resources and services.